Location: Newark
(56.0692°N, 115.8617°E)
Time: 05:26:54
(UTC+00:00)

Transit 4A - Visible Passes

Search period start: 28 May 2020 00:00
Search period end: 07 June 2020 00:00
Orbit: 869 x 976 km, 66.8° (Epoch: 27 May)

Date Brightness Start Highest point End Pass type
(mag) Time Alt. Az. Time Alt. Az. Time Alt. Az.
28 May 9.7 17:16:18 10° SE 17:19:58 17° ESE 17:23:40 10° ENE visible
29 May 9.3 17:24:26 10° SSE 17:28:57 24° ESE 17:33:33 10° ENE visible
30 May 8.9 17:33:01 10° S 17:38:01 32° ESE 17:43:13 10° NE visible
31 May 8.5 17:41:59 12° S 17:47:08 43° ESE 17:52:44 10° NE visible
01 Jun 9.8 16:08:22 10° SE 16:11:12 14° ESE 16:14:04 10° ENE visible
01 Jun 8.1 17:50:55 11° SSW 17:56:20 57° SE 18:02:11 10° NE visible
02 Jun 9.4 16:16:18 11° SSE 16:20:09 20° ESE 16:24:14 10° ENE visible
02 Jun 7.9 17:59:48 10° SSW 18:05:35 75° SE 18:11:35 10° NE visible
03 Jun 9.1 16:25:09 13° SSE 16:29:09 27° ESE 16:34:01 10° ENE visible
03 Jun 7.9 18:09:02 10° SW 18:14:55 86° NW 18:20:58 10° NE visible
04 Jun 8.6 16:33:57 15° S 16:38:15 36° ESE 16:43:37 10° NE visible
04 Jun 8.1 18:18:27 10° SW 18:24:18 69° NW 18:30:20 10° NE visible
05 Jun 9.8 15:01:06 10° ESE 15:02:29 11° E 15:03:51 10° E visible
05 Jun 8.2 16:42:42 14° S 16:47:24 48° ESE 16:53:07 10° NE visible
05 Jun 8.4 18:27:58 10° WSW 18:33:45 56° NW 18:39:42 10° NE visible
06 Jun 9.6 15:08:01 10° SE 15:11:22 16° ESE 15:14:47 10° ENE visible
06 Jun 7.9 16:51:25 13° SSW 16:56:37 64° SE 17:02:33 10° NE visible
